Bend, OR

2:49 AM PST on February 07, 2016 (GMT -0800)
Bend Municipal

Weather History for KBDN - February, 2013

Change the Weather History Date:

Tuesday, February 19, 2013

  Actual Average (KRDM) Record (KRDM)
Temperature  
Mean Temperature 28 °F 36 °F  
Max Temperature 39 °F 48 °F 69 °F (1995)
Min Temperature 17 °F 24 °F -5 °F (2006)
Degree Days  
Heating Degree Days 37 29  
Month to date heating degree days 576  
Since 1 July heating degree days 4416  
Cooling Degree Days 0 0  
Month to date cooling degree days 0  
Year to date cooling degree days 0  
Moisture  
Dew Point 14 °F    
Average Humidity 56    
Maximum Humidity 74    
Minimum Humidity 26    
Precipitation  
Precipitation 0.00 in 0.02 in 0.21 in (1993)
Month to date precipitation 0.45  
Year to date precipitation 1.42  
Sea Level Pressure  
Sea Level Pressure 29.71 in    
Wind  
Wind Speed 4 mph (NW)    
Max Wind Speed 10 mph    
Max Gust Speed 16 mph    
Visibility 10 miles    
Events Rain    
T = Trace of Precipitation, MM = Missing Value Source: NWS Daily Summary

Daily Weather History Graph

Daily Weather History Graph

Search for Another Location

Airport or City:

Trip Planner

Search our weather history database for the weather conditions in past years. The results will help you decide how hot, cold, wet, or windy it might be!

Date:

Astronomy

Feb. 19, 2013 Rise Set
Actual Time 6:57 AM PST 5:40 PM PST
Civil Twilight 6:28 AM PST 6:09 PM PST
Nautical Twilight 5:54 AM PST 6:43 PM PST
Astronomical Twilight 5:21 AM PST 7:16 PM PST
Moon 12:09 PM PST (2/19) 2:40 AM PST (2/19)
Length of Visible Light 11h 41m
Length of Day
10h 42m
Waxing Gibbous, 68% of the Moon is Illuminated
Feb 19
Waxing Gibbous
Feb 25
Full
Mar 4
Last Quarter
Mar 11
New
Mar 19
First Quarter

Hourly Weather History & Observations

Time (PST) Temp. Windchill Dew Point Humidity Pressure Visibility Wind Dir Wind Speed Gust Speed Precip Events Conditions
12:15 AM 24.8 °F 16.9 °F 14.0 °F 64% 29.69 in 10.0 mi South 6.9 mph - N/A   Clear
12:35 AM 24.8 °F 17.9 °F 14.0 °F 64% 29.68 in 10.0 mi SSW 5.8 mph - N/A   Clear
12:55 AM 24.8 °F - 14.0 °F 64% 29.68 in 10.0 mi Calm Calm - N/A   Clear
1:15 AM 24.8 °F 17.9 °F 14.0 °F 64% 29.67 in 10.0 mi SSW 5.8 mph - N/A   Clear
1:35 AM 23.0 °F - 14.0 °F 68% 29.67 in 10.0 mi Calm Calm - N/A   Clear
1:55 AM 21.2 °F - 12.2 °F 68% 29.66 in 10.0 mi Calm Calm - N/A   Clear
2:15 AM 19.4 °F - 12.2 °F 74% 29.66 in 10.0 mi Calm Calm - N/A   Clear
2:35 AM 17.6 °F 9.3 °F 10.4 °F 73% 29.65 in 10.0 mi South 5.8 mph - N/A   Clear
2:55 AM 23.0 °F 15.8 °F 14.0 °F 68% 29.65 in 10.0 mi South 5.8 mph - N/A   Clear
3:15 AM 19.4 °F 11.5 °F 12.2 °F 74% 29.65 in 10.0 mi South 5.8 mph - N/A   Partly Cloudy
3:35 AM 23.0 °F 17.0 °F 14.0 °F 68% 29.64 in 10.0 mi SW 4.6 mph - N/A   Clear
3:55 AM 19.4 °F 12.8 °F 12.2 °F 74% 29.64 in 10.0 mi South 4.6 mph - N/A   Clear
4:35 AM 23.0 °F 14.7 °F 14.0 °F 68% 29.63 in 10.0 mi South 6.9 mph - N/A   Partly Cloudy
4:55 AM 19.4 °F 12.8 °F 10.4 °F 68% 29.63 in 10.0 mi SSE 4.6 mph - N/A   Clear
5:15 AM 19.4 °F 11.5 °F 10.4 °F 68% 29.63 in 10.0 mi SSE 5.8 mph - N/A   Clear
5:35 AM 21.2 °F 11.7 °F 12.2 °F 68% 29.63 in 10.0 mi SSE 8.1 mph - N/A   Clear
5:55 AM 21.2 °F 13.6 °F 12.2 °F 68% 29.64 in 10.0 mi SE 5.8 mph - N/A   Partly Cloudy
6:15 AM 21.2 °F - 12.2 °F 68% 29.63 in 10.0 mi Calm Calm - N/A   Scattered Clouds
6:35 AM 21.2 °F - 12.2 °F 68% 29.64 in 10.0 mi Calm Calm - N/A   Scattered Clouds
6:55 AM 21.2 °F 14.9 °F 12.2 °F 68% 29.64 in 10.0 mi ESE 4.6 mph - N/A   Partly Cloudy
7:15 AM 23.0 °F - 14.0 °F 68% 29.64 in 10.0 mi Calm Calm - N/A   Clear
7:35 AM 23.0 °F 18.4 °F 14.0 °F 68% 29.64 in 10.0 mi SSW 3.5 mph - N/A   Clear
7:55 AM 26.6 °F - 15.8 °F 64% 29.64 in 10.0 mi Calm Calm - N/A   Scattered Clouds
8:15 AM 28.4 °F - 15.8 °F 59% 29.65 in 10.0 mi Calm Calm - N/A   Mostly Cloudy
8:35 AM 28.4 °F - 15.8 °F 59% 29.65 in 9.0 mi Calm Calm - N/A   Scattered Clouds
8:55 AM 28.4 °F - 15.8 °F 59% 29.66 in 10.0 mi Calm Calm - N/A   Clear
9:15 AM 28.4 °F - 15.8 °F 59% 29.66 in 10.0 mi Calm Calm - N/A   Clear
9:35 AM 32.0 °F 27.5 °F 15.8 °F 51% 29.66 in 10.0 mi WNW 4.6 mph - N/A   Clear
9:55 AM 32.0 °F 27.5 °F 15.8 °F 51% 29.67 in 10.0 mi NW 4.6 mph - N/A   Clear
10:15 AM 32.0 °F 27.5 °F 15.8 °F 51% 29.67 in 10.0 mi North 4.6 mph - N/A   Clear
10:35 AM 32.0 °F 27.5 °F 15.8 °F 51% 29.66 in 10.0 mi NNW 4.6 mph - N/A   Clear
10:55 AM 32.0 °F 28.7 °F 15.8 °F 51% 29.67 in 10.0 mi North 3.5 mph - N/A   Clear
11:15 AM 33.8 °F - 14.0 °F 44% 29.67 in 10.0 mi Calm Calm - N/A   Clear
11:35 AM 35.6 °F 31.7 °F 14.0 °F 41% 29.67 in 10.0 mi North 4.6 mph - N/A   Clear
11:55 AM 35.6 °F 32.8 °F 10.4 °F 35% 29.67 in 3.0 mi North 3.5 mph - N/A   Haze
12:15 PM 37.4 °F 32.8 °F 10.4 °F 33% 29.66 in 3.0 mi NNE 5.8 mph - N/A   Haze
12:35 PM 37.4 °F 33.8 °F 8.6 °F 30% 29.66 in 10.0 mi NNW 4.6 mph - N/A   Clear
12:55 PM 37.4 °F 33.8 °F 8.6 °F 30% 29.67 in 10.0 mi ENE 4.6 mph - N/A   Partly Cloudy
1:15 PM 37.4 °F 32.1 °F 8.6 °F 30% 29.67 in 10.0 mi NNW 6.9 mph - N/A   Scattered Clouds
1:35 PM 39.2 °F 32.5 °F 8.6 °F 28% 29.67 in 10.0 mi NNW 10.4 mph - N/A   Scattered Clouds
1:55 PM 37.4 °F 33.8 °F 6.8 °F 28% 29.68 in 10.0 mi NNE 4.6 mph - N/A   Mostly Cloudy
2:15 PM 37.4 °F 32.1 °F 8.6 °F 30% 29.68 in 10.0 mi NNE 6.9 mph - N/A   Scattered Clouds
2:35 PM 39.2 °F 33.6 °F 6.8 °F 26% 29.68 in 10.0 mi NNE 8.1 mph - N/A   Clear
2:55 PM 39.2 °F 33.6 °F 8.6 °F 28% 29.69 in 10.0 mi North 8.1 mph - N/A   Partly Cloudy
3:15 PM 39.2 °F 32.5 °F 8.6 °F 28% 29.69 in 10.0 mi North 10.4 mph - N/A   Scattered Clouds
3:35 PM 39.2 °F 33.6 °F 8.6 °F 28% 29.70 in 7.0 mi North 8.1 mph - N/A   Scattered Clouds
4:35 PM 39.2 °F 32.5 °F 8.6 °F 28% 29.71 in 10.0 mi NNW 10.4 mph - N/A   Clear
4:55 PM 37.4 °F 30.3 °F 10.4 °F 33% 29.72 in 10.0 mi North 10.4 mph 16.1 mph N/A   Clear
5:15 PM 35.6 °F 29.2 °F 17.6 °F 48% 29.74 in 10.0 mi NE 8.1 mph - N/A   Mostly Cloudy
5:55 PM 33.8 °F 30.8 °F 21.2 °F 60% 29.76 in 10.0 mi NE 3.5 mph - N/A Rain Light Rain
6:15 PM 33.8 °F - 23.0 °F 65% 29.77 in 10.0 mi Calm Calm - N/A   Mostly Cloudy
6:35 PM 33.8 °F 28.6 °F 17.6 °F 52% 29.78 in 10.0 mi North 5.8 mph - N/A   Mostly Cloudy
6:55 PM 32.0 °F - 17.6 °F 55% 29.79 in 10.0 mi Calm Calm - N/A   Scattered Clouds
7:15 PM 32.0 °F - 17.6 °F 55% 29.80 in 10.0 mi Calm Calm - N/A   Partly Cloudy
7:35 PM 28.4 °F - 17.6 °F 64% 29.80 in 10.0 mi Calm Calm - N/A   Partly Cloudy
7:55 PM 28.4 °F - 17.6 °F 64% 29.81 in 10.0 mi Calm Calm - N/A   Scattered Clouds
8:15 PM 28.4 °F - 17.6 °F 64% 29.81 in 10.0 mi Calm Calm - N/A   Mostly Cloudy
8:35 PM 28.4 °F - 17.6 °F 64% 29.82 in 10.0 mi Calm Calm - N/A   Mostly Cloudy
8:55 PM 30.2 °F 23.4 °F 17.6 °F 60% 29.83 in 10.0 mi WNW 6.9 mph - N/A   Mostly Cloudy
9:15 PM 30.2 °F 24.3 °F 17.6 °F 60% 29.84 in 10.0 mi WNW 5.8 mph - N/A   Scattered Clouds
9:35 PM 28.4 °F 22.2 °F 17.6 °F 64% 29.85 in 10.0 mi WNW 5.8 mph - N/A   Clear
9:55 PM 28.4 °F 23.3 °F 17.6 °F 64% 29.85 in 10.0 mi WNW 4.6 mph - N/A   Clear
10:15 PM 26.6 °F 21.2 °F 15.8 °F 64% 29.86 in 10.0 mi West 4.6 mph - N/A   Clear
10:35 PM 24.8 °F 20.5 °F 15.8 °F 69% 29.87 in 10.0 mi West 3.5 mph - N/A   Clear
10:55 PM 24.8 °F 19.1 °F 15.8 °F 69% 29.87 in 10.0 mi West 4.6 mph - N/A   Clear
11:15 PM 24.8 °F 17.9 °F 15.8 °F 69% 29.88 in 10.0 mi West 5.8 mph - N/A   Clear
11:35 PM 24.8 °F - 15.8 °F 69% 29.88 in 10.0 mi Calm Calm - N/A   Clear
11:55 PM 23.0 °F - 15.8 °F 74% 29.89 in 10.0 mi Calm Calm - N/A   Clear